Вернуться в каталог

LEGION 3

АктивенНаукаVLEO
NORAD 60452·PAYLOAD·🇺🇸 United States

Запущен Aug 15, 2024 с Cape Canaveral Space Force Station

Loading…

Ближайшие Пролёты (ближайшие 24 часа)

TLE

СвежийSource: Space-Track

Эпоха: Sep 14, 2026, 11:49 UTC

1 60452U 24146A   26257.49300585  .00002673  00000-0  15020-3 0  9999
2 60452  45.0008 271.7365 0008212 325.9347  34.1003 15.16025123115579

Отслеживайте LEGION 3 в реальном времени с AllMySat

Download on the App Store